Weather History for Grant County, OR

Change the Weather History Date:

Friday, September 27, 2013

  Actual Average (KBNO) Record (KBNO)
Temperature  
Mean Temperature 48 °F 52 °F  
Max Temperature 57 °F 71 °F 91 °F (1963)
Min Temperature 39 °F 32 °F 17 °F (1999)
Degree Days  
Heating Degree Days 17 13  
Month to date heating degree days 239  
Since 1 July heating degree days 376  
Cooling Degree Days 0 0  
Month to date cooling degree days 7  
Year to date cooling degree days 213  
Moisture  
Dew Point 38 °F    
Average Humidity 69    
Maximum Humidity 94    
Minimum Humidity 38    
Precipitation  
Precipitation 0.01 in 0.02 in 0.38 in (1981)
Month to date precipitation 0.39  
Year to date precipitation 7.37  
Sea Level Pressure  
Sea Level Pressure 30.10 in    
Wind  
Wind Speed 2 mph (West)    
Max Wind Speed 12 mph    
Max Gust Speed 16 mph    
Visibility 10 miles    
Events Rain    
T = Trace of Precipitation, MM = Missing Value Source: NWS Daily Summary

Daily Weather History Graph

Daily Weather History Graph

Search for Another Location

Airport:

Trip Planner

Search our weather history database for the weather conditions in past years. The results will help you decide how hot, cold, wet, or windy it might be!

Date:

Astronomy

Sep. 27, 2013 Rise Set
Actual Time 6:49 AM PDT 6:43 PM PDT
Civil Twilight 6:20 AM PDT 7:12 PM PDT
Nautical Twilight 5:46 AM PDT 7:45 PM PDT
Astronomical Twilight 5:12 AM PDT 8:20 PM PDT
Moon No Moon Rise 2:37 PM PDT (9/27)
Length of Visible Light 12h 51m
Length of Day
11h 54m
Last Quarter, 44% of the Moon is Illuminated
Sep 27
Last Quarter
Oct 4
New
Oct 11
First Quarter
Oct 18
Full
Oct 26
Last Quarter

Hourly Weather History & Observations

Time (PDT) Temp. Windchill Dew Point Humidity Pressure Visibility Wind Dir Wind Speed Gust Speed Precip Events Conditions
12:15 AM 41.7 °F 39.8 °F 37.6 °F 85% 30.12 in 10.0 mi WSW 3.5 mph - N/A   Scattered Clouds
12:35 AM 42.1 °F - 37.8 °F 85% 30.12 in 10.0 mi Calm Calm - N/A   Mostly Cloudy
12:55 AM 41.2 °F - 37.4 °F 86% 30.11 in 10.0 mi Calm Calm - N/A   Scattered Clouds
1:15 AM 42.1 °F - 37.4 °F 83% 30.11 in 10.0 mi Calm Calm - N/A   Mostly Cloudy
1:35 AM 41.9 °F - 37.2 °F 83% 30.12 in 10.0 mi Calm Calm - N/A   Overcast
1:55 AM 39.7 °F - 37.4 °F 91% 30.13 in 10.0 mi Calm Calm - N/A   Overcast
2:15 AM 40.5 °F - 38.3 °F 92% 30.12 in 10.0 mi Calm Calm - N/A   Overcast
2:35 AM 40.5 °F - 38.1 °F 91% 30.12 in 10.0 mi Calm Calm - N/A   Scattered Clouds
2:55 AM 40.3 °F - 37.2 °F 89% 30.12 in 10.0 mi Calm Calm - N/A   Scattered Clouds
3:15 AM 40.3 °F - 37.2 °F 89% 30.12 in 10.0 mi Calm Calm - N/A   Mostly Cloudy
3:35 AM 40.1 °F - 37.6 °F 91% 30.12 in 10.0 mi Calm Calm - N/A   Overcast
3:55 AM 40.6 °F - 37.9 °F 90% 30.13 in 10.0 mi Calm Calm - N/A   Overcast
4:15 AM 41.0 °F - 38.3 °F 90% 30.14 in 10.0 mi Calm Calm - N/A   Overcast
4:35 AM 41.0 °F - 38.3 °F 90% 30.14 in 10.0 mi Calm Calm - N/A   Overcast
4:55 AM 40.6 °F - 38.3 °F 91% 30.14 in 10.0 mi Calm Calm - N/A   Overcast
5:15 AM 41.7 °F - 38.3 °F 88% 30.14 in 10.0 mi Calm Calm - N/A   Scattered Clouds
5:35 AM 39.7 °F - 37.4 °F 91% 30.14 in 10.0 mi Calm Calm - N/A   Mostly Cloudy
5:55 AM 39.2 °F - 37.6 °F 94% 30.13 in 10.0 mi Calm Calm - N/A   Overcast
6:15 AM 39.6 °F - 37.4 °F 92% 30.14 in 10.0 mi Calm Calm - N/A   Overcast
6:35 AM 40.1 °F - 38.1 °F 93% 30.14 in 10.0 mi Calm Calm - N/A   Overcast
6:55 AM 40.3 °F - 38.1 °F 92% 30.14 in 10.0 mi Calm Calm - N/A   Overcast
7:15 AM 40.5 °F - 38.3 °F 92% 30.14 in 10.0 mi Calm Calm - N/A   Overcast
7:35 AM 41.0 °F - 38.3 °F 90% 30.14 in 10.0 mi Calm Calm - N/A   Overcast
7:55 AM 41.9 °F - 38.7 °F 88% 30.14 in 10.0 mi Calm Calm - N/A   Overcast
8:15 AM 43.0 °F - 38.8 °F 85% 30.15 in 10.0 mi Calm Calm - N/A   Overcast
8:35 AM 43.0 °F - 38.8 °F 85% 30.15 in 10.0 mi Calm Calm - N/A   Overcast
8:55 AM 44.1 °F - 39.6 °F 84% 30.15 in 10.0 mi Calm Calm - N/A   Overcast
9:15 AM 46.8 °F - 39.6 °F 76% 30.15 in 10.0 mi Calm Calm - N/A   Overcast
9:35 AM 47.5 °F - 40.1 °F 76% 30.14 in 10.0 mi NE 4.6 mph - N/A   Overcast
9:55 AM 47.5 °F - 39.6 °F 74% 30.14 in 10.0 mi WNW 4.6 mph - N/A   Mostly Cloudy
10:15 AM 48.9 °F - 41.2 °F 75% 30.14 in 10.0 mi NW 4.6 mph - N/A   Mostly Cloudy
10:35 AM 48.2 °F - 39.4 °F 72% 30.14 in 10.0 mi Calm Calm - N/A   Mostly Cloudy
10:55 AM 50.0 °F - 39.4 °F 67% 30.13 in 10.0 mi NW 4.6 mph - N/A   Scattered Clouds
11:15 AM 50.5 °F - 38.8 °F 64% 30.14 in 10.0 mi NNW 4.6 mph - N/A   Mostly Cloudy
11:35 AM 51.3 °F - 38.5 °F 62% 30.13 in 10.0 mi WNW 6.9 mph - N/A   Mostly Cloudy
11:55 AM 51.8 °F - 38.1 °F 60% 30.13 in 10.0 mi WNW 9.2 mph - N/A   Mostly Cloudy
12:15 PM 52.5 °F - 37.9 °F 58% 30.13 in 10.0 mi West 6.9 mph - N/A   Overcast
12:35 PM 51.8 °F - 37.6 °F 58% 30.12 in 10.0 mi West 8.1 mph - N/A   Overcast
12:55 PM 51.8 °F - 37.2 °F 58% 30.11 in 10.0 mi WNW 6.9 mph - N/A   Overcast
1:15 PM 52.7 °F - 37.2 °F 56% 30.11 in 10.0 mi WNW 6.9 mph - N/A   Overcast
1:35 PM 53.8 °F - 36.9 °F 53% 30.09 in 10.0 mi WNW 4.6 mph - N/A   Overcast
1:55 PM 55.8 °F - 35.8 °F 47% 30.08 in 10.0 mi West 4.6 mph - N/A   Mostly Cloudy
2:15 PM 57.2 °F - 32.0 °F 38% 30.07 in 10.0 mi WSW 4.6 mph - N/A   Mostly Cloudy
2:35 PM 56.3 °F - 30.6 °F 38% 30.06 in 10.0 mi Calm Calm - N/A   Overcast
2:55 PM 56.3 °F - 33.4 °F 42% 30.06 in 10.0 mi NW 6.9 mph - N/A   Overcast
3:15 PM 56.3 °F - 33.8 °F 43% 30.05 in 10.0 mi NW 5.8 mph - N/A   Overcast
3:35 PM 55.6 °F - 34.7 °F 45% 30.05 in 10.0 mi NNW 4.6 mph - N/A   Overcast
3:55 PM 55.6 °F - 34.3 °F 45% 30.05 in 10.0 mi WNW 3.5 mph - N/A   Overcast
4:15 PM 55.6 °F - 34.5 °F 45% 30.06 in 10.0 mi Calm Calm - N/A   Overcast
4:35 PM 55.0 °F - 34.9 °F 47% 30.06 in 10.0 mi Calm Calm - N/A   Overcast
4:55 PM 55.0 °F - 35.2 °F 47% 30.06 in 10.0 mi Calm Calm - N/A   Overcast
5:15 PM 54.7 °F - 36.0 °F 49% 30.06 in 10.0 mi Calm Calm - N/A   Overcast
5:35 PM 54.7 °F - 36.1 °F 50% 30.06 in 10.0 mi Calm Calm - N/A   Overcast
5:55 PM 54.5 °F - 37.2 °F 52% 30.07 in 10.0 mi Calm Calm - N/A   Overcast
6:15 PM 54.7 °F - 36.9 °F 51% 30.07 in 10.0 mi WSW 11.5 mph 16.1 mph N/A   Light Drizzle
6:35 PM 54.3 °F - 36.7 °F 51% 30.06 in 10.0 mi West 6.9 mph - N/A   Overcast
6:55 PM 54.0 °F - 36.7 °F 52% 30.06 in 10.0 mi SW 4.6 mph - N/A   Overcast
7:15 PM 53.1 °F - 38.1 °F 57% 30.06 in 10.0 mi Calm Calm - N/A   Overcast
7:35 PM 53.1 °F - 37.8 °F 56% 30.05 in 10.0 mi Calm Calm - N/A   Overcast
7:55 PM 52.7 °F - 39.0 °F 60% 30.06 in 10.0 mi Calm Calm - N/A   Overcast
8:15 PM 53.1 °F - 39.2 °F 59% 30.06 in 10.0 mi Calm Calm - N/A   Light Drizzle
8:35 PM 53.1 °F - 38.5 °F 58% 30.06 in 10.0 mi South 4.6 mph - N/A   Overcast
8:55 PM 53.8 °F - 37.8 °F 55% 30.05 in 10.0 mi South 6.9 mph - N/A   Overcast
9:15 PM 53.8 °F - 37.8 °F 55% 30.05 in 10.0 mi South 8.1 mph - N/A   Overcast
9:35 PM 53.6 °F - 38.7 °F 57% 30.05 in 10.0 mi South 6.9 mph - N/A   Overcast
9:55 PM 54.5 °F - 40.3 °F 59% 30.05 in 10.0 mi SSW 4.6 mph - N/A   Overcast
10:15 PM 53.8 °F - 39.6 °F 59% 30.05 in 10.0 mi SSW 4.6 mph - N/A   Overcast
10:35 PM 53.1 °F - 40.5 °F 62% 30.05 in 10.0 mi SW 4.6 mph - N/A   Overcast
10:55 PM 53.1 °F - 41.0 °F 64% 30.04 in 10.0 mi West 3.5 mph - N/A   Overcast
11:15 PM 51.8 °F - 41.7 °F 68% 30.05 in 10.0 mi WNW 3.5 mph - N/A Rain Light Rain
11:35 PM 50.5 °F - 42.6 °F 74% 30.04 in 10.0 mi Calm Calm - 0.01 in Rain Light Rain
11:55 PM 51.1 °F - 43.5 °F 75% 30.03 in 10.0 mi SSE 3.5 mph - 0.01 in   Overcast